Zurück zum Katalog

SCATSAT 1

AktivWetterSSO
NORAD 41790·PAYLOAD·🇮🇳 India

Gestartet Sep 26, 2016 von Satish Dhawan Space Centre

Loading…

Nächste Überflüge (nächste 24 Stunden)

TLE

AktuellSource: Space-Track

Epoche: Sep 13, 2026, 17:39 UTC

1 41790U 16059H   26256.73552014  .00000719  00000-0  10106-3 0  9998
2 41790  98.1107 321.3832 0053556 323.7297  36.0287 14.79701753114688

Verfolge SCATSAT 1 in Echtzeit mit AllMySat

Download on the App Store